Date String (YYYY-MM-DD hh:mm:ss) UTC,Instrument flags,absolute air pressure of the measurement (hPa),sample flow rate (lpm),inlet stack bypass flow (lpm),air temperature of the measurement (°C),ambient temperature measured by the external sensor (°C),aerosol sample conditioner tube jacket temperature (°C),OPC LED temperature (°C),internal box temperature (°C),relative humidity of the measurement (%),span deviation,mass concentration of particles derived from Lorenz-Mie calculation of OPC scattering (μg/m³),mass concentration of particles derived from Lorenz-Mie calculation of OPC scattering (μg/m³),mass concentration of particles derived from Lorenz-Mie calculation of OPC scattering (μg/m³)
DateTimeUTC,F1_M11,P_M11,Q1_M11,Q2_M11,T1_M11,T2_M11,T3_M11,T4_M11,T5_M11,U1_M11,ZSPAN_M11,X2_M11,X0_M11,X1_M11
2023-12-26 23:00:00,SystemResetWarning,0824.0,5.00,000.00,019.2,018.5,000.0,027.5,020.6,13.4,0000.0,0002.92,0009.07,0001.87
2023-12-26 23:01:00,SystemResetWarning,0824.0,5.00,000.00,019.2,018.5,000.0,027.5,020.6,13.6,0000.0,0002.90,0009.03,0001.87
2023-12-26 23:02:00,SystemResetWarning,0824.0,5.01,000.00,019.2,018.5,000.0,027.5,020.5,13.7,0000.0,0002.88,0008.95,0001.87
2023-12-26 23:03:00,SystemResetWarning,0824.0,5.01,000.00,019.2,018.5,000.0,027.5,020.5,13.7,0000.0,0002.85,0009.10,0001.86
2023-12-26 23:04:00,SystemResetWarning,0824.0,5.00,000.00,019.2,018.5,000.0,027.5,020.5,13.6,0000.0,0002.92,0009.01,0001.88
2023-12-26 23:05:00,SystemResetWarning,0824.0,4.99,000.00,019.2,018.6,000.0,027.5,020.5,13.4,0000.0,0002.94,0008.79,0001.89
2023-12-26 23:06:00,SystemResetWarning,0824.0,4.99,000.00,019.2,018.5,000.0,027.5,020.5,13.9,0000.0,0002.88,0008.85,0001.89
2023-12-26 23:07:00,SystemResetWarning,0824.0,5.00,000.00,019.2,018.5,000.0,027.5,020.5,13.5,0000.0,0002.78,0009.32,0001.88
2023-12-26 23:08:00,SystemResetWarning,0824.0,5.00,000.00,019.2,018.5,000.0,027.5,020.5,12.8,0000.0,0002.79,0009.50,0001.89
2023-12-26 23:09:00,SystemResetWarning,0824.0,5.00,000.00,019.2,018.5,000.0,027.5,020.6,13.4,0000.0,0002.76,0008.58,0001.89
2023-12-26 23:10:00,SystemResetWarning,0824.0,5.01,000.00,019.2,018.5,000.0,027.5,020.6,13.2,0000.0,0002.67,0008.61,0001.86
2023-12-26 23:11:00,SystemResetWarning,0824.0,5.01,000.00,019.2,018.5,000.0,027.5,020.6,13.1,0000.0,0002.61,0008.58,0001.86
2023-12-26 23:12:00,SystemResetWarning,0824.1,4.99,000.00,019.2,018.5,000.0,027.5,020.6,13.1,0000.0,0002.62,0008.99,0001.87
2023-12-26 23:13:00,SystemResetWarning,0824.1,5.00,000.00,019.2,018.5,000.0,027.5,020.6,12.8,0000.0,0002.59,0009.07,0001.89
2023-12-26 23:14:00,SystemResetWarning,0824.1,4.99,000.00,019.3,018.5,000.0,027.5,020.6,12.9,0000.0,0002.56,0008.85,0001.90
2023-12-26 23:15:00,SystemResetWarning,0824.1,5.00,000.00,019.3,018.5,000.0,027.5,020.6,12.7,0000.0,0002.55,0008.85,0001.93
2023-12-26 23:16:00,SystemResetWarning,0824.2,5.00,000.00,019.3,018.5,000.0,027.6,020.6,12.7,0000.0,0002.58,0009.80,0001.96
2023-12-26 23:17:00,SystemResetWarning,0824.3,5.01,000.00,019.3,018.6,000.0,027.6,020.6,13.0,0000.0,0002.59,0009.66,0001.97
2023-12-26 23:18:00,SystemResetWarning,0824.3,5.01,000.00,019.3,018.6,000.0,027.6,020.6,13.5,0000.0,0002.66,0010.15,0002.03
2023-12-26 23:19:00,SystemResetWarning,0824.4,5.00,000.00,019.3,018.6,000.0,027.6,020.6,13.1,0000.0,0002.64,0009.72,0002.05
2023-12-26 23:20:00,SystemResetWarning,0824.4,4.99,000.00,019.3,018.6,000.0,027.6,020.6,12.7,0000.0,0002.69,0009.81,0002.08
2023-12-26 23:21:00,SystemResetWarning,0824.3,5.00,000.00,019.3,018.6,000.0,027.6,020.6,12.5,0000.0,0002.75,0009.17,0002.10
2023-12-26 23:22:00,SystemResetWarning,0824.4,5.00,000.00,019.3,018.6,000.0,027.6,020.6,12.9,0000.0,0002.81,0009.32,0002.09
2023-12-26 23:23:00,SystemResetWarning,0824.4,5.00,000.00,019.3,018.6,000.0,027.6,020.6,12.7,0000.0,0002.78,0008.92,0002.07
2023-12-26 23:24:00,SystemResetWarning,0824.4,5.00,000.00,019.3,018.6,000.0,027.6,020.6,12.3,0000.0,0002.74,0008.85,0002.04
2023-12-26 23:25:00,SystemResetWarning,0824.4,5.00,000.00,019.3,018.6,000.0,027.6,020.6,12.2,0000.0,0002.75,0008.87,0002.03
2023-12-26 23:26:00,SystemResetWarning,0824.4,5.00,000.00,019.3,018.6,000.0,027.6,020.6,12.6,0000.0,0002.71,0008.63,0002.00
2023-12-26 23:27:00,SystemResetWarning,0824.4,5.00,000.00,019.3,018.6,000.0,027.6,020.6,13.0,0000.0,0002.72,0007.49,0002.00
2023-12-26 23:28:00,SystemResetWarning,0824.5,5.01,000.00,019.3,018.7,000.0,027.6,020.6,13.1,0000.0,0002.80,0007.70,0002.03
2023-12-26 23:29:00,SystemResetWarning,0824.5,4.99,000.00,019.3,018.7,000.0,027.6,020.6,13.2,0000.0,0002.81,0006.39,0001.98
2023-12-26 23:30:00,SystemResetWarning,0824.5,5.00,000.00,019.3,018.7,000.0,027.6,020.6,13.0,0000.0,0002.79,0006.16,0001.95
2023-12-26 23:31:00,SystemResetWarning,0824.5,5.00,000.00,019.3,018.7,000.0,027.6,020.6,13.0,0000.0,0002.75,0006.09,0001.92
2023-12-26 23:32:00,SystemResetWarning,0824.5,5.00,000.00,019.3,018.7,000.0,027.6,020.6,13.1,0000.0,0002.74,0005.79,0001.90
2023-12-26 23:33:00,SystemResetWarning,0824.5,4.99,000.00,019.3,018.7,000.0,027.6,020.6,13.1,0000.0,0002.70,0005.35,0001.88
2023-12-26 23:34:00,SystemResetWarning,0824.5,5.00,000.00,019.3,018.7,000.0,027.6,020.6,12.9,0000.0,0002.66,0005.33,0001.85
2023-12-26 23:35:00,SystemResetWarning,0824.6,5.01,000.00,019.3,018.7,000.0,027.6,020.6,12.7,0000.0,0002.59,0005.03,0001.79
2023-12-26 23:36:00,SystemResetWarning,0824.6,5.01,000.00,019.3,018.7,000.0,027.6,020.5,12.7,0000.0,0002.51,0004.89,0001.72
2023-12-26 23:37:00,SystemResetWarning,0824.7,5.00,000.00,019.3,018.7,000.0,027.6,020.5,12.7,0000.0,0002.41,0004.70,0001.64
2023-12-26 23:38:00,SystemResetWarning,0824.7,5.00,000.00,019.3,018.7,000.0,027.6,020.5,12.7,0000.0,0002.28,0004.61,0001.52
2023-12-26 23:39:00,SystemResetWarning,0824.7,5.00,000.00,019.3,018.7,000.0,027.6,020.5,12.8,0000.0,0002.08,0004.13,0001.39
2023-12-26 23:40:00,SystemResetWarning,0824.7,5.00,000.00,019.3,018.7,000.0,027.6,020.5,12.8,0000.0,0001.96,0005.06,0001.33
2023-12-26 23:41:00,SystemResetWarning,0824.7,5.00,000.00,019.3,018.7,000.0,027.6,020.4,12.8,0000.0,0001.88,0004.83,0001.27
2023-12-26 23:42:00,SystemResetWarning,0824.7,5.00,000.00,019.2,018.7,000.0,027.6,020.4,12.8,0000.0,0001.80,0004.62,0001.20
2023-12-26 23:43:00,SystemResetWarning,0824.7,5.00,000.00,019.2,018.7,000.0,027.6,020.4,12.8,0000.0,0001.76,0005.14,0001.16
2023-12-26 23:44:00,SystemResetWarning,0824.7,5.00,000.00,019.2,018.7,000.0,027.6,020.4,12.9,0000.0,0001.73,0006.53,0001.15
2023-12-26 23:45:00,SystemResetWarning,0824.7,5.01,000.00,019.2,018.7,000.0,027.6,020.3,13.0,0000.0,0001.79,0006.90,0001.15
2023-12-26 23:46:00,SystemResetWarning,0824.7,5.00,000.00,019.2,018.6,000.0,027.6,020.2,13.0,0000.0,0001.83,0006.98,0001.18
2023-12-26 23:47:00,SystemResetWarning,0824.7,5.00,000.00,019.2,018.6,000.0,027.6,020.2,13.2,0000.0,0001.96,0007.29,0001.27
2023-12-26 23:48:00,SystemResetWarning,0824.8,5.00,000.00,019.2,018.5,000.0,027.6,020.2,13.3,0000.0,0002.08,0007.68,0001.35
2023-12-26 23:49:00,SystemResetWarning,0824.7,5.00,000.00,019.2,018.5,000.0,027.6,020.2,13.3,0000.0,0002.22,0007.84,0001.44
2023-12-26 23:50:00,SystemResetWarning,0824.7,5.00,000.00,019.2,018.5,000.0,027.6,020.2,13.3,0000.0,0002.35,0007.93,0001.53
2023-12-26 23:51:00,SystemResetWarning,0824.8,5.00,000.00,019.2,018.5,000.0,027.5,020.2,13.2,0000.0,0002.47,0007.54,0001.60
2023-12-26 23:52:00,SystemResetWarning,0824.7,5.00,000.00,019.2,018.4,000.0,027.5,020.3,13.2,0000.0,0002.55,0007.37,0001.67
2023-12-26 23:53:00,SystemResetWarning,0824.7,5.00,000.00,019.1,018.4,000.0,027.5,020.3,13.3,0000.0,0002.63,0007.46,0001.75
2023-12-26 23:54:00,SystemResetWarning,0824.8,4.99,000.00,019.1,018.4,000.0,027.5,020.2,13.4,0000.0,0002.68,0007.45,0001.81
2023-12-26 23:55:00,SystemResetWarning,0824.8,5.00,000.00,019.1,018.4,000.0,027.5,020.3,13.4,0000.0,0002.71,0006.11,0001.86
2023-12-26 23:56:00,SystemResetWarning,0824.8,5.00,000.00,019.1,018.4,000.0,027.5,020.3,13.4,0000.0,0002.75,0006.33,0001.90
2023-12-26 23:57:00,SystemResetWarning,0824.8,5.00,000.00,019.1,018.4,000.0,027.5,020.3,13.4,0000.0,0002.81,0007.08,0001.93
2023-12-26 23:58:00,SystemResetWarning,0824.8,5.00,000.00,019.1,018.4,000.0,027.5,020.3,13.4,0000.0,0002.86,0007.06,0001.95
2023-12-26 23:59:00,SystemResetWarning,0824.9,5.00,000.00,019.1,018.4,000.0,027.5,020.3,13.6,0000.0,0002.85,0006.63,0001.97
